SENTINEL-1A (39634 NORAD) Tracking and Keplerian Element Data

This shows tracking and keplerian element data for the satellite.

Feedback or suggestion? Click here.




ElementValue
Catalog39634
NameSENTINEL-1A
Epoch Orbit39745
Epoch Day262.11621358
Epoch Year2021
RAAN268.5608
Inclination98.1821
Eccentricity0.0001311
Argument of Perigee79.5086
Mean Anonmoly280.6274
Mean Motion14.5919799
Decay Rate-5.1E-07
L11 39634U 14016A 21262.11621358 -.00000051 00000-0 -11703-5 0 9992
L22 39634 98.1821 268.5608 0001311 79.5086 280.6274 14.59197990397453

Live tracking and technical data element details for SENTINEL-1A (NORAD 39634). SENTINEL-1A can be tracked NOW for your location showing map with azimuth and elevation plus other details from your city location.

Track the satellite on the map from your city or location and see movement details for azimuth, elevation, latitude, longitude, range, height, and movement on the map or in text.







IsCatalogInMostPopularTable: catalog: 39634, numindb: 593
Update: records affected: 1



GetName: 39634 SENTINEL-1A

Hit Count: updated at: Sat, 25 Sep 2021 23:37:03 GMT